This demonstration page uses our WeatherBlox Daily Observations layout. Learn more.

Left ArrowRight Arrow

34.74481, -87.66753

Hourly Observations for May 28, 2021

Temp ( °F °C ) Dew Point ( °F °C ) Humidity (%) Winds ( mph kmh ) Pressure ( in mb ) Visibility ( mi km ) Precip ( " mm )
12:53 am 00:53 Clear 74 23.3 66 18.9 76 76 S 5 7 29.92 1013 10 16 0.00 0.00
1:53 am 01:53 Partly Cloudy 75 23.9 67 19.4 76 76 undefined N/A 29.91 1013 10 16 0.00 0.00
2:53 am 02:53 Mostly Cloudy 73 22.8 67 19.4 81 81 NE 3 6 29.90 1012 10 16 0.00 0.00
3:53 am 03:53 Mostly Cloudy 72 22.2 66 18.9 82 82 Calm 29.88 1012 10 16 0.00 0.00
4:53 am 04:53 Mostly Clear 70 21.1 65 18.3 84 84 E 3 6 29.88 1012 10 16 0.00 0.00
5:53 am 05:53 Partly Cloudy 71 21.7 66 18.9 84 84 SE 5 7 29.88 1012 10 16 0.00 0.00
6:53 am 06:53 undefined N/A N/A N/A undefined N/A N/A N/A 0.00 0.00
8:48 am 08:48 Mostly Cloudy 79 26 68 20 70 70 SW 15 24 29.88 1012 10 16 0.00 0.00
8:53 am 08:53 Mostly Cloudy 78 25.6 68 20 71 71 SW 13 20 29.87 1012 10 16 0.00 0.00
9:53 am 09:53 Cloudy 78 25.6 67 19.4 69 69 SW 12 19 29.85 1011 10 16 0.00 0.00
10:43 am 10:43 Cloudy 78 25.6 67 19.4 69 69 SW 13 20 29.86 1011 10 16 0.00 0.00
10:53 am 10:53 Cloudy 78 25.6 67 19.4 69 69 SSW 16 26 29.87 1011 10 16 0.00 0.00
11:53 am 11:53 Cloudy 76 24.4 67 19.4 74 74 W 16 26 29.88 1012 10 16 0.00 0.00
12:03 pm 12:03 Cloudy with Light Rain 76 24.4 68 20 77 77 W 12 19 29.88 1012 8 13 0.00 0.00
12:53 pm 12:53 Cloudy 76 24.4 66 18.9 72 72 WSW 8 13 29.86 1011 10 16 0.00 0.00
1:53 pm 13:53 Mostly Cloudy 79 26.1 65 18.3 62 62 W 10 17 29.84 1011 10 16 0.00 0.00
1:58 pm 13:58 Mostly Cloudy with Heavy Rain 76 24.4 66 18.9 72 72 WNW 14 22 29.85 1011 2 3 0.13 3.30
2:06 pm 14:06 Cloudy with Light Rain 74 23.3 68 20 82 82 NW 7 11 29.85 1011 2 3 0.14 3.56
2:10 pm 14:10 Mostly Cloudy with Light Rain 77 25 70 21.1 79 79 WNW 6 9 29.84 1010 9 14 0.14 3.56
2:53 pm 14:53 Mostly Sunny 82 27.8 68 20 63 63 NW 12 19 29.83 1010 10 16 0.14 3.56
3:53 pm 15:53 Partly Cloudy 81 27.2 65 18.3 58 58 WNW 16 26 29.82 1010 10 16 0.00 0.00
4:53 pm 16:53 Partly Cloudy 82 27.8 64 17.8 55 55 WNW 14 22 29.81 1010 10 16 0.00 0.00
5:53 pm 17:53 Mostly Sunny 81 27.2 63 17.2 54 54 NW 14 22 29.82 1010 10 16 0.00 0.00
6:53 pm 18:53 Mostly Sunny 80 26.7 64 17.8 58 58 WNW 14 22 29.83 1010 10 16 0.00 0.00
7:53 pm 19:53 Sunny 77 25 64 17.8 64 64 W 10 17 29.84 1011 10 16 0.00 0.00
8:53 pm 20:53 Clear 75 23.9 64 17.8 69 69 WNW 9 15 29.85 1011 10 16 0.00 0.00
9:53 pm 21:53 Cloudy 72 22.2 60 15.6 66 66 N 13 20 29.88 1012 10 16 0.00 0.00
10:24 pm 22:24 Partly Cloudy 70 21.1 58 14.4 66 66 NNW 8 13 29.88 1012 10 16 0.00 0.00
10:53 pm 22:53 Clear 68 20 58 14.4 70 70 NNW 7 11 29.88 1012 10 16 0.00 0.00
11:26 pm 23:26 Mostly Cloudy 68 20 57 13.9 68 68 NNW 10 17 29.90 1012 10 16 0.00 0.00
11:53 pm 23:53 Cloudy 67 19.4 56 13.3 68 68 NNW 12 19 29.90 1013 10 16 0.00 0.00

Powered by AerisWeather